Location: Northam
(31.6525°S, 116.6655°E)
Time: 19:28:31
(UTC+08:00)

AAUSAT CUBESAT 2 - Pass Details

Date: 01 August 2021
Orbit: 572 x 587 km, 97.5° (Epoch: 18 September)

Event Time Altitude Azimuth Distance (km) Brightness Sun altitude
Rises 18:31:39 0° 191° (S) 2,850 ? -11.7°
Reaches altitude 10° 18:34:35 10° 213° (SSW) 1,938 ? -12.3°
Maximum altitude 18:37:04 16° 249° (WSW) 1,599 ? -12.9°
Drops below altitude 10° 18:39:32 10° 286° (WNW) 1,921 ? -13.4°
Sets 18:42:25 0° 308° (NW) 2,810 ? -14.0°
